www.pogodaiklimat.ru

Погода и климат >> Архив погоды >> Узбекистан >> Самарканд аэропорт


ПОГОДА в Самарканд аэропорту

  • Прогноз погоды в Самарканд аэропорту
  • Монитор погоды в Самарканд аэропорту

АРХИВ ПОГОДЫ в Самарканд аэропорту

Время (UTC), дата Ветер
(напр.,м/с)
 
Видим.   Явления Облачность Т
(С)
Тd
(С)
f
(%)
Тe
(С)
Тes
(С)
Комфортность P
(гПа)
Po
(гПа)
Тmin
(С)
Tmax
(С)
R
(мм)
R24
(мм)
S
(см)
03 18.07 штиль 0 29 км ясно +27.8 +15.2 46 +30 +38 жарко 1014.2 935.3
06 18.07 В 1 29 км ясно +37.4 +10.7 20 +36 +57 опасность
солнечного
удара
1011.1 934.6 +21.1
09 18.07 СВ 2 29 км ясно +38.5 +7.6 15 +36 +54 опасность
солнечного
удара
1010.5 934.3
12 18.07 СВ 2 29 км ясно +37.8 +8.4 17 +36 +42 очень
жарко
1010.5 934.1
15 18.07 СВ 1 29 км ясно +32.4 +12.0 29 +33 +33 жарко 1012.0 934.3 +39.3
18 18.07 СВ 1 н/о ясно +25.4 +11.8 43 +27 +27 жарко 1014.4 934.7 +39.3
21 18.07 В 1 н/о ясно +23.2 +11.0 46 +25 +25 комфорт 1014.5 934.3
00 19.07 В 1 10 км ясно +21.5 +9.7 47 +23 +23 комфорт 1015.0 934.3
03 19.07 В 1 29 км ясно +28.1 +12.8 39 +30 +36 жарко 1014.3 935.4
06 19.07 СВ 3 29 км ясно +37.2 +5.0 14 +34 +49 очень
жарко
1012.1 935.4 +21.5
09 19.07 СВ 3 29 км ясно +38.3 +5.8 14 +36 +50 очень
жарко
1011.3 934.9
12 19.07 В 3 29 км ясно +38.8 +6.8 14 +36 +41 очень
жарко
1011.0 934.7
15 19.07 В 1 29 км ясно +32.6 +12.3 29 +33 +33 жарко 1012.3 934.6 +40.0
18 19.07 В 1 н/о ясно +27.7 +9.5 32 +28 +28 жарко 1014.7 935.5 +40.0
21 19.07 В 1 н/о ясно +29.2 +8.8 28 +29 +29 жарко 1015.7 936.1
00 20.07 В 2 10 км ясно +27.0 +7.7 29 +27 +27 жарко 1016.1 936.6
03 20.07 В 1 29 км ясно +30.4 +9.8 28 +30 +36 жарко 1016.1 937.5
06 20.07 СВ 2 29 км ясно +36.8 +8.8 18 +35 +52 опасность
солнечного
удара
1015.6 938.5 +27.0
09 20.07 СВ 2 29 км ясно +38.4 +8.0 16 +36 +54 опасность
солнечного
удара
1014.5 937.9
12 20.07 СВ 2 29 км ясно +38.5 +6.2 14 +36 +42 очень
жарко
1014.5 937.9
15 20.07 СВ 1 29 км ясно +34.9 +5.9 17 +33 +33 жарко 1015.4 937.9 +39.3
18 20.07 СВ 1 н/о ясно +26.6 +12.3 41 +28 +28 жарко 1018.4 938.7 +39.3
21 20.07 В 1 н/о ясно +23.8 +11.7 47 +25 +25 комфорт 1018.3 937.9
00 21.07 СВ 1 10 км ясно +23.4 +9.7 42 +25 +25 комфорт 1019.2 938.6
03 21.07 СВ 1 29 км ясно +27.4 +12.9 41 +29 +35 жарко 1017.5 938.2
06 21.07 В 1 29 км ясно +38.0 +12.1 21 +37 +58 опасность
солнечного
удара
1015.2 938.5 +23.4
09 21.07 В 2 29 км ясно +39.8 +11.0 18 +39 +56 опасность
солнечного
удара
1015.5 939.3
12 21.07 В 1 29 км ясно +39.6 +10.6 18 +38 +45 очень
жарко
1014.4 938.2
15 21.07 В 1 29 км ясно +32.4 +16.0 37 +35 +35 душно 1016.2 938.3 +41.2
18 21.07 штиль 0 н/о ясно +27.6 +17.7 55 +32 +32 очень
душно
1017.2 938.1 +41.2
21 21.07 штиль 0 н/о ясно +29.0 +13.4 38 +31 +31 жарко 1016.8 937.9
00 22.07 В 1 10 км ясно +29.0 +11.5 34 +30 +30 жарко 1016.8 937.9
03 22.07 В 2 29 км ясно +29.8 +13.6 37 +31 +37 жарко 1017.4 938.6

 

Местоположение метеостанции Самарканд аэропорт (Самаркандская область, Узбекистан): широта 39.80 долгота 67.00 высота над уровнем моря 671 м.

В архиве по умолчанию представлена погода в Самарканд аэропорту за последнюю неделю. Архивные данные за месяц целиком и за предыдущие месяцы, начиная с января 2011 года, Вы можете получить, выбрав интересующий диапазон дат из раскрывающегося списка и нажав кнопку "Ввод!".


*Определитесь, кто Вы:
робот инопланетянин человек

Внимание! Время в таблицах - всемирное. Для получения местного времени необходимо прибавить поправку, которая равна 5 ч.

Смотрите также архив погоды в соседних городах и на ближайших метеорологических станциях:

Погода в Дагбите (Самаркандская область, Узбекистан) (9 км)
Погода в Самарканде (Самаркандская область, Узбекистан) (26 км)
Погода в Богарном (Джизакская область, Узбекистан) (41 км)
Погода на Каттакурган вдхр (Самаркандская область, Узбекистан) (60 км)
Погода в Нурабаде (Самаркандская область, Узбекистан) (62 км)
Погода в Пенджикенте (Таджикистан) (65 км)
Погода в Янгикишлаке (Джизакская область, Узбекистан) (71 км)
Погода на Леднике Северцова (Кашкадарьинская область, Узбекистан) (75 км)
Погода в Джизаке (Джизакская область, Узбекистан) (79 км)
Погода в Шахрисабзе (Кашкадарьинская область, Узбекистан) (85 км)

Пояснения к столбцам:

Ветер - указаны скорость ветра в м/с - средняя за 10 мин, порывы в срок и между сроками (в фигурных скобках) и направление, откуда дует ветер: С - северный, СВ - северо-восточный, В - восточный, ЮВ - юго-восточный, Ю - южный, ЮЗ - юго-западный, З - западный, СЗ - северо-западный.
Видимость - горизонтальная дальность видимости в метрах или километрах. При видимости от 1 до 10 км при отсутствии осадков обычно наблюдается дымка, при ухудшении видимости до 1 км и менее - туман. В сухую погоду видимость может ухудшаться дымом, пылью или мглою.
Явления - указаны атмосферные явления, наблюдавшиеся в срок или в последний час перед сроком; фигурными скобками обозначены явления, наблюдавшиеся между сроками (за 1-3 часа до срока); квадратными скобками обозначены град или гололедные отложения с указанием их диаметра в мм.
Облачность - указаны через наклонную черту общая и нижняя облачность в баллах и высота нижней границы облаков в метрах; квадратными скобками обозначены формы облаков: Ci - перистые, Cs - перисто-слоистые, Cc - перисто-кучевые, Ac - высококучевые, As - высокослоистые, Sc - слоисто-кучевые, Ns - слоисто-дождевые, Cu - кучевые, Cb - кучево-дождевые. Подробнее классификацию облаков см. в Атласе облаков (PDF).
T - Температура воздуха - температура, измеренная на высоте 2 м над землей.
Td - Температура точки росы - температура, при понижении до которой содержащийся в воздухе водяной пар достигнет насыщения.
f - Относительная влажность воздуха - влажноcть воздуха, измеренная на высоте 2 м над землей.
Te - Эффективная температура - температура, которую ощущает одетый по сезону человек в тени. Характеристика душности погоды. При расчете учитывается влияние влажности воздуха и скорости ветра на теплоощущения человека.
Tes - Эффективная температура на солнце - температура, которую ощущает человек, с поправкой на солнечный нагрев. Характеристика знойности погоды. Зависит от высоты солнца над горизонтом, облачности и скорости ветра. Ночью, в пасмурную погоду, а также при ветре 12 м/с и более поправка равна нулю.
P - Атмосферное давление - приведенное к уровню моря атмосферное давление.
Po - Атмосферное давление - измеренное на уровне метеостанции атмосферное давление.
Tmin - Минимальная температура - минимум температуры воздуха на высоте 2 м над землей.
Tmax - Максимальная температура - максимум температуры воздуха на высоте 2 м над землей.
R - Количество осадков - Количество выпавших осадков за период времени, мм. При наведении курсора мыши на число - период времени, за который выпало указанное количество осадков.
R24 - Количество осадков - Количество выпавших осадков за 24 часа, мм.
S - Снежный покров - Высота снежного покрова, см. При наведении курсора мыши на число - состояние снежного покрова и степень покрытия местности в баллах.